Вернуться в каталог

STARLINK-35867

АктивенСвязьVLEO
NORAD 66791·PAYLOAD·🇺🇸 United States

Запущен Dec 1, 2025 с Cape Canaveral Space Force Station

Loading…

Ближайшие Пролёты (ближайшие 24 часа)

TLE

СвежийSource: CelesTrak SupGP

Эпоха: Sep 15, 2026, 02:35 UTC

1 66791C 25278A   26258.10812500  .00043067  00000+0  15613-2 0  2588
2 66791  43.0002 125.0528 0001430 280.6414  70.8827 15.27527371    19

Отслеживайте STARLINK-35867 в реальном времени с AllMySat

Download on the App Store